Location: Aranbee
(34.0885°N, 118.2342°W)
Time: 12:43:59
(UTC+00:00)

Tiros 1 - Pass Details

Date: 05 December 2020
Orbit: 630 x 663 km, 48.4° (Epoch: 21 January)

Event Time Altitude Azimuth Distance (km) Brightness Sun altitude
Rises 19:03:20 0° 209° (SSW) 2,964 11.2 32.6°
Reaches altitude 10° 19:05:47 10° 201° (SSW) 2,060 10.7 32.7°
Maximum altitude 19:10:10 37° 134° (SE) 1,021 9.4 32.9°
Drops below altitude 10° 19:14:35 10° 67° (ENE) 2,078 9.7 33.0°
Sets 19:17:04 0° 60° (ENE) 2,994 10.4 33.1°
